Year,Month,Day,Hour,Minute,Value (Times are PST for temperature in C)
2007,07,09,00,00,15.70
2007,07,09,00,01,15.70
2007,07,09,00,02,15.70
2007,07,09,00,03,15.70
2007,07,09,00,04,15.60
2007,07,09,00,05,15.60
2007,07,09,00,06,15.60
2007,07,09,00,07,15.60
2007,07,09,00,08,15.60
2007,07,09,00,09,15.60
2007,07,09,00,10,15.60
2007,07,09,00,11,15.50
2007,07,09,00,12,15.50
2007,07,09,00,13,15.50
2007,07,09,00,14,15.50
2007,07,09,00,15,15.50
2007,07,09,00,16,15.50
2007,07,09,00,17,15.50
2007,07,09,00,18,15.40
2007,07,09,00,19,15.40
2007,07,09,00,20,15.40
2007,07,09,00,21,15.40
2007,07,09,00,22,15.40
2007,07,09,00,23,15.40
2007,07,09,00,24,15.40
2007,07,09,00,25,15.40
2007,07,09,00,26,15.40
2007,07,09,00,27,15.40
2007,07,09,00,28,15.40
2007,07,09,00,29,15.40
2007,07,09,00,30,15.40
2007,07,09,00,31,15.40
2007,07,09,00,32,15.40
2007,07,09,00,33,15.40
2007,07,09,00,34,15.30
2007,07,09,00,35,15.30
2007,07,09,00,36,15.30
2007,07,09,00,37,15.30
2007,07,09,00,38,15.30
2007,07,09,00,39,15.30
2007,07,09,00,40,15.30
2007,07,09,00,41,15.20
2007,07,09,00,42,15.20
2007,07,09,00,43,15.20
2007,07,09,00,44,15.20
2007,07,09,00,45,15.20
2007,07,09,00,46,15.20
2007,07,09,00,47,15.20
2007,07,09,00,48,15.20
2007,07,09,00,49,15.20
2007,07,09,00,50,15.20
2007,07,09,00,51,15.20
2007,07,09,00,52,15.10
2007,07,09,00,53,15.10
2007,07,09,00,54,15.10
2007,07,09,00,55,15.10
2007,07,09,00,56,15.10
2007,07,09,00,57,15.10
2007,07,09,00,58,15.10
2007,07,09,00,59,15.00
2007,07,09,01,00,15.00
2007,07,09,01,01,15.00
2007,07,09,01,02,15.00
2007,07,09,01,03,15.00
2007,07,09,01,04,15.00
2007,07,09,01,05,15.00
2007,07,09,01,06,15.00
2007,07,09,01,07,15.00
2007,07,09,01,08,15.00
2007,07,09,01,09,15.00
2007,07,09,01,10,15.00
2007,07,09,01,11,15.00
2007,07,09,01,12,15.00
2007,07,09,01,13,15.00
2007,07,09,01,14,15.00
2007,07,09,01,15,15.00
2007,07,09,01,16,15.00
2007,07,09,01,17,15.00
2007,07,09,01,18,15.00
2007,07,09,01,19,15.00
2007,07,09,01,20,15.00
2007,07,09,01,21,15.00
2007,07,09,01,22,14.90
2007,07,09,01,23,14.90
2007,07,09,01,24,14.90
2007,07,09,01,25,14.90
2007,07,09,01,26,14.90
2007,07,09,01,27,14.90
2007,07,09,01,28,14.90
2007,07,09,01,29,14.90
2007,07,09,01,30,14.90
2007,07,09,01,31,14.80
2007,07,09,01,32,14.90
2007,07,09,01,33,14.80
2007,07,09,01,34,14.80
2007,07,09,01,35,14.80
2007,07,09,01,36,14.80
2007,07,09,01,37,14.80
2007,07,09,01,38,14.80
2007,07,09,01,39,14.80
2007,07,09,01,40,14.80
2007,07,09,01,41,14.80
2007,07,09,01,42,14.80
2007,07,09,01,43,14.80
2007,07,09,01,44,14.80
2007,07,09,01,45,14.70
2007,07,09,01,46,14.70
2007,07,09,01,47,14.70
2007,07,09,01,48,14.70
2007,07,09,01,49,14.70
2007,07,09,01,50,14.70
2007,07,09,01,51,14.70
2007,07,09,01,52,14.70
2007,07,09,01,53,14.70
2007,07,09,01,54,14.70
2007,07,09,01,55,14.70
2007,07,09,01,56,14.60
2007,07,09,01,57,14.60
2007,07,09,01,58,14.60
2007,07,09,01,59,14.60
2007,07,09,02,00,14.60
2007,07,09,02,01,14.60
2007,07,09,02,02,14.50
2007,07,09,02,03,14.50
2007,07,09,02,04,14.50
2007,07,09,02,05,14.50
2007,07,09,02,06,14.40
2007,07,09,02,07,14.40
2007,07,09,02,08,14.40
2007,07,09,02,09,14.40
2007,07,09,02,10,14.40
2007,07,09,02,11,14.40
2007,07,09,02,12,14.40
2007,07,09,02,13,14.40
2007,07,09,02,14,14.40
2007,07,09,02,15,14.40
2007,07,09,02,16,14.40
2007,07,09,02,17,14.40
2007,07,09,02,18,14.40
2007,07,09,02,19,14.40
2007,07,09,02,20,14.40
2007,07,09,02,21,14.40
2007,07,09,02,22,14.40
2007,07,09,02,23,14.30
2007,07,09,02,24,14.30
2007,07,09,02,25,14.30
2007,07,09,02,26,14.30
2007,07,09,02,27,14.30
2007,07,09,02,28,14.30
2007,07,09,02,29,14.30
2007,07,09,02,30,14.30
2007,07,09,02,31,14.30
2007,07,09,02,32,14.30
2007,07,09,02,33,14.30
2007,07,09,02,34,14.30
2007,07,09,02,35,14.30
2007,07,09,02,36,14.30
2007,07,09,02,37,14.20
2007,07,09,02,38,14.20
2007,07,09,02,39,14.20
2007,07,09,02,40,14.20
2007,07,09,02,41,14.20
2007,07,09,02,42,14.20
2007,07,09,02,43,14.20
2007,07,09,02,44,14.20
2007,07,09,02,45,14.20
2007,07,09,02,46,14.20
2007,07,09,02,47,14.20
2007,07,09,02,48,14.10
2007,07,09,02,49,14.10
2007,07,09,02,50,14.10
2007,07,09,02,51,14.10
2007,07,09,02,52,14.10
2007,07,09,02,53,14.10
2007,07,09,02,54,14.10
2007,07,09,02,55,14.10
2007,07,09,02,56,14.10
2007,07,09,02,57,14.10
2007,07,09,02,58,14.10
2007,07,09,02,59,14.10
2007,07,09,03,00,14.10
2007,07,09,03,01,14.00
2007,07,09,03,02,14.00
2007,07,09,03,03,14.00
2007,07,09,03,04,14.00
2007,07,09,03,05,14.00
2007,07,09,03,06,14.00
2007,07,09,03,07,13.90
2007,07,09,03,08,13.90
2007,07,09,03,09,13.90
2007,07,09,03,10,13.90
2007,07,09,03,11,13.90
2007,07,09,03,12,13.90
2007,07,09,03,13,13.90
2007,07,09,03,14,13.90
2007,07,09,03,15,13.90
2007,07,09,03,16,13.90
2007,07,09,03,17,13.90
2007,07,09,03,18,13.90
2007,07,09,03,19,13.90
2007,07,09,03,20,13.90
2007,07,09,03,21,13.90
2007,07,09,03,22,13.90
2007,07,09,03,23,13.90
2007,07,09,03,24,13.90
2007,07,09,03,25,13.90
2007,07,09,03,26,13.90
2007,07,09,03,27,13.90
2007,07,09,03,28,13.80
2007,07,09,03,29,13.80
2007,07,09,03,30,13.80
2007,07,09,03,31,13.80
2007,07,09,03,32,13.80
2007,07,09,03,33,13.80
2007,07,09,03,34,13.80
2007,07,09,03,35,13.80
2007,07,09,03,36,13.80
2007,07,09,03,37,13.80
2007,07,09,03,38,13.80
2007,07,09,03,39,13.80
2007,07,09,03,40,13.80
2007,07,09,03,41,13.70
2007,07,09,03,42,13.70
2007,07,09,03,43,13.70
2007,07,09,03,44,13.70
2007,07,09,03,45,13.70
2007,07,09,03,46,13.70
2007,07,09,03,47,13.70
2007,07,09,03,48,13.70
2007,07,09,03,49,13.70
2007,07,09,03,50,13.70
2007,07,09,03,51,13.60
2007,07,09,03,52,13.60
2007,07,09,03,53,13.60
2007,07,09,03,54,13.60
2007,07,09,03,55,13.60
2007,07,09,03,56,13.60
2007,07,09,03,57,13.60
2007,07,09,03,58,13.50
2007,07,09,03,59,13.50
2007,07,09,04,00,13.50
2007,07,09,04,01,13.50
2007,07,09,04,02,13.40
2007,07,09,04,03,13.40
2007,07,09,04,04,13.40
2007,07,09,04,05,13.40
2007,07,09,04,06,13.40
2007,07,09,04,07,13.40
2007,07,09,04,08,13.40
2007,07,09,04,09,13.40
2007,07,09,04,10,13.30
2007,07,09,04,11,13.30
2007,07,09,04,12,13.30
2007,07,09,04,13,13.30
2007,07,09,04,14,13.30
2007,07,09,04,15,13.30
2007,07,09,04,16,13.30
2007,07,09,04,17,13.30
2007,07,09,04,18,13.30
2007,07,09,04,19,13.30
2007,07,09,04,20,13.30
2007,07,09,04,21,13.30
2007,07,09,04,22,13.30
2007,07,09,04,23,13.30
2007,07,09,04,24,13.30
2007,07,09,04,25,13.30
2007,07,09,04,26,13.30
2007,07,09,04,27,13.30
2007,07,09,04,28,13.30
2007,07,09,04,29,13.30
2007,07,09,04,30,13.30
2007,07,09,04,31,13.30
2007,07,09,04,32,13.30
2007,07,09,04,33,13.30
2007,07,09,04,34,13.30
2007,07,09,04,35,13.30
2007,07,09,04,36,13.30
2007,07,09,04,37,13.30
2007,07,09,04,38,13.30
2007,07,09,04,39,13.30
2007,07,09,04,40,13.30
2007,07,09,04,41,13.30
2007,07,09,04,42,13.30
2007,07,09,04,43,13.30
2007,07,09,04,44,13.30
2007,07,09,04,45,13.30
2007,07,09,04,46,13.30
2007,07,09,04,47,13.30
2007,07,09,04,48,13.30
2007,07,09,04,49,13.30
2007,07,09,04,50,13.20
2007,07,09,04,51,13.20
2007,07,09,04,52,13.20
2007,07,09,04,53,13.20
2007,07,09,04,54,13.20
2007,07,09,04,55,13.20
2007,07,09,04,56,13.20
2007,07,09,04,57,13.20
2007,07,09,04,58,13.10
2007,07,09,04,59,13.10
2007,07,09,05,00,13.10
2007,07,09,05,01,13.10
2007,07,09,05,02,13.10
2007,07,09,05,03,13.10
2007,07,09,05,04,13.10
2007,07,09,05,05,13.00
2007,07,09,05,06,13.00
2007,07,09,05,07,13.00
2007,07,09,05,08,13.00
2007,07,09,05,09,13.00
2007,07,09,05,10,12.90
2007,07,09,05,11,12.90
2007,07,09,05,12,12.90
2007,07,09,05,13,12.90
2007,07,09,05,14,12.90
2007,07,09,05,15,12.90
2007,07,09,05,16,12.90
2007,07,09,05,17,12.90
2007,07,09,05,18,12.90
2007,07,09,05,19,12.90
2007,07,09,05,20,12.80
2007,07,09,05,21,12.80
2007,07,09,05,22,12.80
2007,07,09,05,23,12.80
2007,07,09,05,24,12.80
2007,07,09,05,25,12.80
2007,07,09,05,26,12.70
2007,07,09,05,27,12.70
2007,07,09,05,28,12.70
2007,07,09,05,29,12.70
2007,07,09,05,30,12.70
2007,07,09,05,31,12.70
2007,07,09,05,32,12.60
2007,07,09,05,33,12.60
2007,07,09,05,34,12.60
2007,07,09,05,35,12.60
2007,07,09,05,36,12.60
2007,07,09,05,37,12.60
2007,07,09,05,38,12.50
2007,07,09,05,39,12.50
2007,07,09,05,40,12.50
2007,07,09,05,41,12.50
2007,07,09,05,42,12.50
2007,07,09,05,43,12.50
2007,07,09,05,44,12.50
2007,07,09,05,45,12.50
2007,07,09,05,46,12.60
2007,07,09,05,47,12.60
2007,07,09,05,48,12.60
2007,07,09,05,49,12.60
2007,07,09,05,50,12.60
2007,07,09,05,51,12.60
2007,07,09,05,52,12.60
2007,07,09,05,53,12.60
2007,07,09,05,54,12.60
2007,07,09,05,55,12.60
2007,07,09,05,56,12.60
2007,07,09,05,57,12.60
2007,07,09,05,58,12.60
2007,07,09,05,59,12.50
2007,07,09,06,00,12.50
2007,07,09,06,01,12.50
2007,07,09,06,02,12.50
2007,07,09,06,03,12.40
2007,07,09,06,04,12.40
2007,07,09,06,05,12.40
2007,07,09,06,06,12.50
2007,07,09,06,07,12.50
2007,07,09,06,08,12.50
2007,07,09,06,09,12.50
2007,07,09,06,10,12.50
2007,07,09,06,11,12.50
2007,07,09,06,12,12.50
2007,07,09,06,13,12.60
2007,07,09,06,14,12.60
2007,07,09,06,15,12.60
2007,07,09,06,16,12.60
2007,07,09,06,17,12.60
2007,07,09,06,18,12.60
2007,07,09,06,19,12.60
2007,07,09,06,20,12.60
2007,07,09,06,21,12.60
2007,07,09,06,22,12.60
2007,07,09,06,23,12.60
2007,07,09,06,24,12.60
2007,07,09,06,25,12.60
2007,07,09,06,26,12.60
2007,07,09,06,27,12.60
2007,07,09,06,28,12.70
2007,07,09,06,29,12.70
2007,07,09,06,30,12.70
2007,07,09,06,31,12.70
2007,07,09,06,32,12.70
2007,07,09,06,33,12.70
2007,07,09,06,34,12.70
2007,07,09,06,35,12.60
2007,07,09,06,36,12.60
2007,07,09,06,37,12.60
2007,07,09,06,38,12.60
2007,07,09,06,39,12.60
2007,07,09,06,40,12.60
2007,07,09,06,41,12.60
2007,07,09,06,42,12.70
2007,07,09,06,43,12.70
2007,07,09,06,44,12.70
2007,07,09,06,45,12.70
2007,07,09,06,46,12.70
2007,07,09,06,47,12.70
2007,07,09,06,48,12.80
2007,07,09,06,49,12.80
2007,07,09,06,50,12.80
2007,07,09,06,51,12.80
2007,07,09,06,52,12.80
2007,07,09,06,53,12.80
2007,07,09,06,54,12.80
2007,07,09,06,55,12.90
2007,07,09,06,56,12.90
2007,07,09,06,57,12.90
2007,07,09,06,58,12.90
2007,07,09,06,59,12.90
2007,07,09,07,00,13.00
2007,07,09,07,01,13.00
2007,07,09,07,02,13.00
2007,07,09,07,03,13.10
2007,07,09,07,04,13.10
2007,07,09,07,05,13.10
2007,07,09,07,06,13.10
2007,07,09,07,07,13.20
2007,07,09,07,08,13.20
2007,07,09,07,09,13.20
2007,07,09,07,10,13.20
2007,07,09,07,11,13.30
2007,07,09,07,12,13.30
2007,07,09,07,13,13.30
2007,07,09,07,14,13.30
2007,07,09,07,15,13.30
2007,07,09,07,16,13.40
2007,07,09,07,17,13.40
2007,07,09,07,18,13.40
2007,07,09,07,19,13.40
2007,07,09,07,20,13.40
2007,07,09,07,21,13.50
2007,07,09,07,22,13.50
2007,07,09,07,23,13.50
2007,07,09,07,24,13.60
2007,07,09,07,25,13.60
2007,07,09,07,26,13.60
2007,07,09,07,27,13.60
2007,07,09,07,28,13.70
2007,07,09,07,29,13.70
2007,07,09,07,30,13.70
2007,07,09,07,31,13.80
2007,07,09,07,32,13.80
2007,07,09,07,33,13.80
2007,07,09,07,34,13.80
2007,07,09,07,35,13.80
2007,07,09,07,36,13.90
2007,07,09,07,37,13.90
2007,07,09,07,38,13.90
2007,07,09,07,39,14.00
2007,07,09,07,40,14.00
2007,07,09,07,41,14.00
2007,07,09,07,42,14.10
2007,07,09,07,43,14.10
2007,07,09,07,44,14.10
2007,07,09,07,45,14.20
2007,07,09,07,46,14.20
2007,07,09,07,47,14.20
2007,07,09,07,48,14.30
2007,07,09,07,49,14.30
2007,07,09,07,50,14.30
2007,07,09,07,51,14.40
2007,07,09,07,52,14.40
2007,07,09,07,53,14.50
2007,07,09,07,54,14.50
2007,07,09,07,55,14.60
2007,07,09,07,56,14.60
2007,07,09,07,57,14.70
2007,07,09,07,58,14.70
2007,07,09,07,59,14.70
2007,07,09,08,00,14.80
2007,07,09,08,01,14.80
2007,07,09,08,02,14.90
2007,07,09,08,03,14.90
2007,07,09,08,04,15.00
2007,07,09,08,05,15.00
2007,07,09,08,06,15.00
2007,07,09,08,07,15.00
2007,07,09,08,08,15.20
2007,07,09,08,09,15.30
2007,07,09,08,10,15.30
2007,07,09,08,11,15.30
2007,07,09,08,12,15.40
2007,07,09,08,13,15.50
2007,07,09,08,14,15.50
2007,07,09,08,15,15.70
2007,07,09,08,16,15.80
2007,07,09,08,17,15.90
2007,07,09,08,18,16.00
2007,07,09,08,19,16.00
2007,07,09,08,20,16.10
2007,07,09,08,21,16.20
2007,07,09,08,22,16.30
2007,07,09,08,23,16.40
2007,07,09,08,24,16.40
2007,07,09,08,25,16.50
2007,07,09,08,26,16.60
2007,07,09,08,27,16.70
2007,07,09,08,28,16.70
2007,07,09,08,29,16.80
2007,07,09,08,30,16.80
2007,07,09,08,31,16.90
2007,07,09,08,32,16.90
2007,07,09,08,33,17.00
2007,07,09,08,34,17.00
2007,07,09,08,35,17.10
2007,07,09,08,36,17.20
2007,07,09,08,37,17.30
2007,07,09,08,38,17.40
2007,07,09,08,39,17.50
2007,07,09,08,40,17.60
2007,07,09,08,41,17.60
2007,07,09,08,42,17.60
2007,07,09,08,43,17.60
2007,07,09,08,44,17.70
2007,07,09,08,45,17.70
2007,07,09,08,46,17.80
2007,07,09,08,47,17.80
2007,07,09,08,48,17.90
2007,07,09,08,49,17.90
2007,07,09,08,50,17.90
2007,07,09,08,51,18.00
2007,07,09,08,52,18.00
2007,07,09,08,53,18.10
2007,07,09,08,54,18.10
2007,07,09,08,55,18.10
2007,07,09,08,56,18.10
2007,07,09,08,57,18.10
2007,07,09,08,58,18.10
2007,07,09,08,59,18.10
2007,07,09,09,00,18.10
2007,07,09,09,01,18.20
2007,07,09,09,02,18.20
2007,07,09,09,03,18.20
2007,07,09,09,04,18.20
2007,07,09,09,05,18.20
2007,07,09,09,06,18.30
2007,07,09,09,07,18.30
2007,07,09,09,08,18.30
2007,07,09,09,09,18.40
2007,07,09,09,10,18.40
2007,07,09,09,11,18.40
2007,07,09,09,12,18.50
2007,07,09,09,13,18.50
2007,07,09,09,14,18.60
2007,07,09,09,15,18.60
2007,07,09,09,16,18.60
2007,07,09,09,17,18.60
2007,07,09,09,18,18.60
2007,07,09,09,19,18.60
2007,07,09,09,20,18.70
2007,07,09,09,21,18.70
2007,07,09,09,22,18.70
2007,07,09,09,23,18.80
2007,07,09,09,24,18.80
2007,07,09,09,25,18.90
2007,07,09,09,26,19.00
2007,07,09,09,27,19.10
2007,07,09,09,28,19.10
2007,07,09,09,29,19.20
2007,07,09,09,30,19.20
2007,07,09,09,31,19.20
2007,07,09,09,32,19.20
2007,07,09,09,33,19.20
2007,07,09,09,34,19.20
2007,07,09,09,35,19.20
2007,07,09,09,36,19.20
2007,07,09,09,37,19.20
2007,07,09,09,38,19.20
2007,07,09,09,39,19.20
2007,07,09,09,40,19.20
2007,07,09,09,41,19.30
2007,07,09,09,42,19.30
2007,07,09,09,43,19.40
2007,07,09,09,44,19.40
2007,07,09,09,45,19.50
2007,07,09,09,46,19.60
2007,07,09,09,47,19.60
2007,07,09,09,48,19.70
2007,07,09,09,49,19.70
2007,07,09,09,50,19.80
2007,07,09,09,51,19.80
2007,07,09,09,52,19.80
2007,07,09,09,53,19.80
2007,07,09,09,54,19.80
2007,07,09,09,55,19.90
2007,07,09,09,56,19.90
2007,07,09,09,57,19.90
2007,07,09,09,58,19.90
2007,07,09,09,59,19.90
2007,07,09,10,00,20.00
2007,07,09,10,01,20.00
2007,07,09,10,02,20.10
2007,07,09,10,03,20.10
2007,07,09,10,04,20.20
2007,07,09,10,05,20.30
2007,07,09,10,06,20.30
2007,07,09,10,07,20.30
2007,07,09,10,08,20.30
2007,07,09,10,09,20.30
2007,07,09,10,10,20.30
2007,07,09,10,11,20.40
2007,07,09,10,12,20.40
2007,07,09,10,13,20.50
2007,07,09,10,14,20.60
2007,07,09,10,15,20.70
2007,07,09,10,16,20.70
2007,07,09,10,17,20.70
2007,07,09,10,18,20.70
2007,07,09,10,19,20.70
2007,07,09,10,20,20.60
2007,07,09,10,21,20.60
2007,07,09,10,22,20.60
2007,07,09,10,23,20.60
2007,07,09,10,24,20.60
2007,07,09,10,25,20.60
2007,07,09,10,26,20.60
2007,07,09,10,27,20.70
2007,07,09,10,28,20.70
2007,07,09,10,29,20.70
2007,07,09,10,30,20.70
2007,07,09,10,31,20.70
2007,07,09,10,32,20.80
2007,07,09,10,33,20.80
2007,07,09,10,34,20.90
2007,07,09,10,35,21.00
2007,07,09,10,36,21.00
2007,07,09,10,37,21.00
2007,07,09,10,38,21.00
2007,07,09,10,39,20.90
2007,07,09,10,40,21.00
2007,07,09,10,41,21.00
2007,07,09,10,42,21.00
2007,07,09,10,43,21.10
2007,07,09,10,44,21.10
2007,07,09,10,45,21.20
2007,07,09,10,46,21.30
2007,07,09,10,47,21.30
2007,07,09,10,48,21.40
2007,07,09,10,49,21.50
2007,07,09,10,50,21.50
2007,07,09,10,51,21.50
2007,07,09,10,52,21.50
2007,07,09,10,53,21.50
2007,07,09,10,54,21.60
2007,07,09,10,55,21.60
2007,07,09,10,56,21.70
2007,07,09,10,57,21.70
2007,07,09,10,58,21.80
2007,07,09,10,59,21.80
2007,07,09,11,00,21.80
2007,07,09,11,01,21.80
2007,07,09,11,02,21.80
2007,07,09,11,03,21.80
2007,07,09,11,04,21.80
2007,07,09,11,05,21.80
2007,07,09,11,06,21.80
2007,07,09,11,07,21.80
2007,07,09,11,08,21.90
2007,07,09,11,09,21.90
2007,07,09,11,10,22.00
2007,07,09,11,11,22.10
2007,07,09,11,12,22.20
2007,07,09,11,13,22.30
2007,07,09,11,14,22.40
2007,07,09,11,15,22.50
2007,07,09,11,16,22.60
2007,07,09,11,17,22.60
2007,07,09,11,18,22.60
2007,07,09,11,19,22.60
2007,07,09,11,20,22.70
2007,07,09,11,21,22.70
2007,07,09,11,22,22.60
2007,07,09,11,23,22.60
2007,07,09,11,24,22.60
2007,07,09,11,25,22.60
2007,07,09,11,26,22.60
2007,07,09,11,27,22.60
2007,07,09,11,28,22.60
2007,07,09,11,29,22.60
2007,07,09,11,30,22.60
2007,07,09,11,31,22.60
2007,07,09,11,32,22.60
2007,07,09,11,33,22.60
2007,07,09,11,34,22.70
2007,07,09,11,35,22.70
2007,07,09,11,36,22.80
2007,07,09,11,37,22.70
2007,07,09,11,38,22.70
2007,07,09,11,39,22.70
2007,07,09,11,40,22.70
2007,07,09,11,41,22.80
2007,07,09,11,42,22.80
2007,07,09,11,43,22.80
2007,07,09,11,44,22.80
2007,07,09,11,45,22.80
2007,07,09,11,46,22.90
2007,07,09,11,47,23.00
2007,07,09,11,48,23.00
2007,07,09,11,49,23.10
2007,07,09,11,50,23.00
2007,07,09,11,51,23.00
2007,07,09,11,52,23.10
2007,07,09,11,53,23.10
2007,07,09,11,54,23.20
2007,07,09,11,55,23.20
2007,07,09,11,56,23.30
2007,07,09,11,57,23.30
2007,07,09,11,58,23.10
2007,07,09,11,59,23.00
2007,07,09,12,00,22.80
2007,07,09,12,01,22.70
2007,07,09,12,02,22.70
2007,07,09,12,03,22.60
2007,07,09,12,04,22.60
2007,07,09,12,05,22.60
2007,07,09,12,06,22.70
2007,07,09,12,07,22.80
2007,07,09,12,08,23.00
2007,07,09,12,09,23.10
2007,07,09,12,10,23.20
2007,07,09,12,11,23.30
2007,07,09,12,12,23.40
2007,07,09,12,13,23.40
2007,07,09,12,14,23.50
2007,07,09,12,15,23.60
2007,07,09,12,16,23.60
2007,07,09,12,17,23.70
2007,07,09,12,18,23.70
2007,07,09,12,19,23.70
2007,07,09,12,20,23.70
2007,07,09,12,21,23.70
2007,07,09,12,22,23.70
2007,07,09,12,23,23.70
2007,07,09,12,24,23.80
2007,07,09,12,25,23.80
2007,07,09,12,26,23.70
2007,07,09,12,27,23.70
2007,07,09,12,28,23.70
2007,07,09,12,29,23.70
2007,07,09,12,30,23.70
2007,07,09,12,31,23.80
2007,07,09,12,32,23.80
2007,07,09,12,33,23.80
2007,07,09,12,34,23.80
2007,07,09,12,35,23.80
2007,07,09,12,36,23.80
2007,07,09,12,37,23.80
2007,07,09,12,38,23.70
2007,07,09,12,39,23.60
2007,07,09,12,40,23.60
2007,07,09,12,41,23.60
2007,07,09,12,42,23.50
2007,07,09,12,43,23.40
2007,07,09,12,44,23.40
2007,07,09,12,45,23.40
2007,07,09,12,46,23.50
2007,07,09,12,47,23.60
2007,07,09,12,48,23.70
2007,07,09,12,49,23.70
2007,07,09,12,50,23.80
2007,07,09,12,51,23.90
2007,07,09,12,52,24.00
2007,07,09,12,53,24.00
2007,07,09,12,54,24.00
2007,07,09,12,55,24.00
2007,07,09,12,56,24.10
2007,07,09,12,57,24.10
2007,07,09,12,58,24.20
2007,07,09,12,59,24.30
2007,07,09,13,00,24.30
2007,07,09,13,01,24.40
2007,07,09,13,02,24.40
2007,07,09,13,03,24.50
2007,07,09,13,04,24.60
2007,07,09,13,05,24.60
2007,07,09,13,06,24.70
2007,07,09,13,07,24.60
2007,07,09,13,08,24.60
2007,07,09,13,09,24.60
2007,07,09,13,10,24.50
2007,07,09,13,11,24.40
2007,07,09,13,12,24.30
2007,07,09,13,13,24.40
2007,07,09,13,14,24.50
2007,07,09,13,15,24.60
2007,07,09,13,16,24.70
2007,07,09,13,17,24.80
2007,07,09,13,18,24.90
2007,07,09,13,19,24.90
2007,07,09,13,20,24.90
2007,07,09,13,21,25.00
2007,07,09,13,22,25.10
2007,07,09,13,23,25.20
2007,07,09,13,24,25.20
2007,07,09,13,25,25.30
2007,07,09,13,26,25.30
2007,07,09,13,27,25.40
2007,07,09,13,28,25.50
2007,07,09,13,29,25.60
2007,07,09,13,30,25.50
2007,07,09,13,31,25.40
2007,07,09,13,32,25.30
2007,07,09,13,33,25.30
2007,07,09,13,34,25.40
2007,07,09,13,35,25.40
2007,07,09,13,36,25.50
2007,07,09,13,37,25.50
2007,07,09,13,38,25.60
2007,07,09,13,39,25.60
2007,07,09,13,40,25.70
2007,07,09,13,41,25.70
2007,07,09,13,42,25.70
2007,07,09,13,43,25.60
2007,07,09,13,44,25.60
2007,07,09,13,45,25.60
2007,07,09,13,46,25.60
2007,07,09,13,47,25.50
2007,07,09,13,48,25.40
2007,07,09,13,49,25.40
2007,07,09,13,50,25.40
2007,07,09,13,51,25.40
2007,07,09,13,52,25.40
2007,07,09,13,53,25.40
2007,07,09,13,54,25.50
2007,07,09,13,55,25.60
2007,07,09,13,56,25.60
2007,07,09,13,57,25.70
2007,07,09,13,58,25.70
2007,07,09,13,59,25.70
2007,07,09,14,00,25.70
2007,07,09,14,01,25.70
2007,07,09,14,02,25.70
2007,07,09,14,03,25.70
2007,07,09,14,04,25.70
2007,07,09,14,05,25.70
2007,07,09,14,06,25.70
2007,07,09,14,07,25.70
2007,07,09,14,08,25.70
2007,07,09,14,09,25.80
2007,07,09,14,10,25.90
2007,07,09,14,11,26.10
2007,07,09,14,12,26.30
2007,07,09,14,13,26.50
2007,07,09,14,14,26.60
2007,07,09,14,15,26.70
2007,07,09,14,16,26.70
2007,07,09,14,17,26.80
2007,07,09,14,18,26.80
2007,07,09,14,19,26.80
2007,07,09,14,20,26.70
2007,07,09,14,21,26.70
2007,07,09,14,22,26.70
2007,07,09,14,23,26.80
2007,07,09,14,24,26.70
2007,07,09,14,25,26.50
2007,07,09,14,26,26.40
2007,07,09,14,27,26.30
2007,07,09,14,28,26.20
2007,07,09,14,29,26.20
2007,07,09,14,30,26.10
2007,07,09,14,31,26.10
2007,07,09,14,32,26.20
2007,07,09,14,33,26.20
2007,07,09,14,34,26.20
2007,07,09,14,35,26.20
2007,07,09,14,36,26.20
2007,07,09,14,37,26.20
2007,07,09,14,38,26.30
2007,07,09,14,39,26.40
2007,07,09,14,40,26.50
2007,07,09,14,41,26.50
2007,07,09,14,42,26.60
2007,07,09,14,43,26.70
2007,07,09,14,44,26.90
2007,07,09,14,45,27.10
2007,07,09,14,46,27.30
2007,07,09,14,47,27.40
2007,07,09,14,48,27.50
2007,07,09,14,49,27.60
2007,07,09,14,50,27.70
2007,07,09,14,51,27.80
2007,07,09,14,52,27.90
2007,07,09,14,53,27.90
2007,07,09,14,54,28.00
2007,07,09,14,55,28.10
2007,07,09,14,56,28.30
2007,07,09,14,57,28.30
2007,07,09,14,58,28.40
2007,07,09,14,59,28.40
2007,07,09,15,00,28.40
2007,07,09,15,01,28.50
2007,07,09,15,02,28.40
2007,07,09,15,03,28.30
2007,07,09,15,04,28.30
2007,07,09,15,05,28.20
2007,07,09,15,06,28.20
2007,07,09,15,07,28.10
2007,07,09,15,08,28.10
2007,07,09,15,09,28.10
2007,07,09,15,10,28.20
2007,07,09,15,11,28.20
2007,07,09,15,12,28.30
2007,07,09,15,13,28.30
2007,07,09,15,14,28.40
2007,07,09,15,15,28.40
2007,07,09,15,16,28.40
2007,07,09,15,17,28.30
2007,07,09,15,18,28.30
2007,07,09,15,19,28.30
2007,07,09,15,20,28.30
2007,07,09,15,21,28.40
2007,07,09,15,22,28.40
2007,07,09,15,23,28.40
2007,07,09,15,24,28.40
2007,07,09,15,25,28.40
2007,07,09,15,26,28.30
2007,07,09,15,27,28.20
2007,07,09,15,28,28.10
2007,07,09,15,29,28.10
2007,07,09,15,30,28.10
2007,07,09,15,31,28.10
2007,07,09,15,32,28.00
2007,07,09,15,33,27.90
2007,07,09,15,34,27.90
2007,07,09,15,35,27.90
2007,07,09,15,36,27.90
2007,07,09,15,37,28.00
2007,07,09,15,38,28.10
2007,07,09,15,39,28.20
2007,07,09,15,40,28.30
2007,07,09,15,41,28.30
2007,07,09,15,42,28.10
2007,07,09,15,43,28.00
2007,07,09,15,44,27.90
2007,07,09,15,45,27.90
2007,07,09,15,46,27.90
2007,07,09,15,47,27.90
2007,07,09,15,48,27.90
2007,07,09,15,49,28.00
2007,07,09,15,50,28.10
2007,07,09,15,51,28.20
2007,07,09,15,52,28.30
2007,07,09,15,53,28.40
2007,07,09,15,54,28.50
2007,07,09,15,55,28.50
2007,07,09,15,56,28.60
2007,07,09,15,57,28.60
2007,07,09,15,58,28.70
2007,07,09,15,59,28.70
2007,07,09,16,00,28.60
2007,07,09,16,01,28.60
2007,07,09,16,02,28.60
2007,07,09,16,03,28.60
2007,07,09,16,04,28.50
2007,07,09,16,05,28.50
2007,07,09,16,06,28.50
2007,07,09,16,07,28.30
2007,07,09,16,08,28.10
2007,07,09,16,09,28.00
2007,07,09,16,10,27.90
2007,07,09,16,11,27.90
2007,07,09,16,12,27.90
2007,07,09,16,13,27.90
2007,07,09,16,14,27.90
2007,07,09,16,15,27.80
2007,07,09,16,16,27.80
2007,07,09,16,17,27.80
2007,07,09,16,18,27.70
2007,07,09,16,19,27.60
2007,07,09,16,20,27.60
2007,07,09,16,21,27.60
2007,07,09,16,22,27.60
2007,07,09,16,23,27.70
2007,07,09,16,24,27.80
2007,07,09,16,25,27.90
2007,07,09,16,26,27.90
2007,07,09,16,27,27.90
2007,07,09,16,28,27.80
2007,07,09,16,29,27.80
2007,07,09,16,30,27.80
2007,07,09,16,31,27.80
2007,07,09,16,32,27.80
2007,07,09,16,33,27.80
2007,07,09,16,34,27.80
2007,07,09,16,35,27.70
2007,07,09,16,36,27.70
2007,07,09,16,37,27.60
2007,07,09,16,38,27.50
2007,07,09,16,39,27.60
2007,07,09,16,40,27.60
2007,07,09,16,41,27.60
2007,07,09,16,42,27.60
2007,07,09,16,43,27.60
2007,07,09,16,44,27.70
2007,07,09,16,45,27.80
2007,07,09,16,46,28.00
2007,07,09,16,47,28.10
2007,07,09,16,48,28.00
2007,07,09,16,49,27.90
2007,07,09,16,50,27.80
2007,07,09,16,51,27.70
2007,07,09,16,52,27.70
2007,07,09,16,53,27.70
2007,07,09,16,54,27.70
2007,07,09,16,55,27.70
2007,07,09,16,56,27.70
2007,07,09,16,57,27.70
2007,07,09,16,58,27.80
2007,07,09,16,59,27.90
2007,07,09,17,00,28.00
2007,07,09,17,01,28.10
2007,07,09,17,02,28.10
2007,07,09,17,03,28.10
2007,07,09,17,04,28.20
2007,07,09,17,05,28.30
2007,07,09,17,06,28.30
2007,07,09,17,07,28.30
2007,07,09,17,08,28.20
2007,07,09,17,09,28.10
2007,07,09,17,10,28.10
2007,07,09,17,11,28.10
2007,07,09,17,12,28.10
2007,07,09,17,13,28.20
2007,07,09,17,14,28.30
2007,07,09,17,15,28.30
2007,07,09,17,16,28.20
2007,07,09,17,17,28.20
2007,07,09,17,18,28.30
2007,07,09,17,19,28.30